Location: Unspecified
(48.2082°N, 0.0000°E)
Time: 10:18:09
(UTC+00:00)

Transit 4A - Pass Details

Date: 18 June 2019
Orbit: 862 x 982 km, 66.8° (Epoch: 16 July)

Event Time Altitude Azimuth Distance (km) Brightness Sun altitude
Rises 08:22:51 0° 186° (S) 3,599 11.0 40.6°
Reaches altitude 10° 08:25:30 10° 178° (S) 2,675 10.5 41.0°
Maximum altitude 08:31:14 39° 112° (ESE) 1,421 11.5 42.0°
Drops below altitude 10° 08:37:06 10° 47° (NE) 2,739 10.8 42.9°
Sets 08:39:50 0° 40° (NE) 3,696 11.3 43.4°
